www.pogodaiklimat.ru

Погода и климат >> Архив погоды >> Азербайджан >> Баку


АРХИВ ПОГОДЫ в Баку

Время (UTC), дата Ветер
(напр.,м/с)
 
Видим.   Явления Облачность Т
(С)
Тd
(С)
f
(%)
Тe
(С)
Тes
(С)
Комфортность P
(гПа)
Po
(гПа)
Тmin
(С)
Tmax
(С)
R
(мм)
R24
(мм)
S
(см)
03 10.06 СЗ 2 10 км ясно +21.8 +18.7 83 +27 +29 душно 1018.0 1018.1
06 10.06 С 2 10 км 3/0
[Ci fib]
+29.7 +6.2 23 +28 +42 жарко 1018.0 1018.1 +18.4
09 10.06 С 3 10 км 6/0
[Ci fib]
+31.6 +9.9 26 +31 +46 жарко 1017.8 1017.9
12 10.06 ЮВ 3 10 км ясно +32.4 +5.0 18 +30 +39 жарко 1016.6 1016.7
15 10.06 В 3 10 км 8/0
[Ci fib]
+29.8 +8.1 26 +29 +30 жарко 1016.1 1016.2
18 10.06 Ю 2 10 км 8/0
[Ci fib]
+25.4 +17.0 60 +29 +29 душно 1016.6 1016.7 +32.9
21 10.06 В 2 10 км 8/0
[Ac As]
+24.6 +20.3 77 +30 +30 очень
душно
1015.8 1015.9
00 11.06 ЮВ 3 10 км 8/0
[Ac As]
+23.1 +20.8 87 +31 +31 очень
душно
1014.3 1014.4
03 11.06 ЮВ 3 10 км 8/0
[Ac As]
+23.6 +21.8 90 +30 +31 очень
душно
1014.8 1014.9
06 11.06 ЮВ 9 10 км 10/0
[Ac As]
+29.6 +14.7 40 +32 +32 душно 1014.8 1014.9 +22.9
09 11.06 ЮВ 10 10 км 4/0
[Ac As Ci fib]
+31.1 +12.8 33 +32 +33 жарко 1014.5 1014.6
12 11.06 В 6 10 км 4/0
[Ac As Ci fib]
+29.4 +14.9 41 +32 +35 душно 1012.9 1013.0
15 11.06 ЮВ 6 10 км 4/0
[Ac lent Ci fib]
+29.4 +5.9 23 +28 +28 жарко 1011.4 1011.5
18 11.06 В 2 10 км ясно +23.9 +18.1 70 +28 +28 душно 1012.6 1012.7 +32.0
21 11.06 В 1 10 км ясно +23.6 +17.8 70 +28 +28 душно 1011.3 1011.4
00 12.06 С 1 10 км ясно +21.8 +12.5 55 +24 +24 комфорт 1008.7 1008.8
03 12.06 ЮВ 1 10 км 8/4 1000 м
[Cb cap Ac cuf]
+24.3 +17.7 67 +28 +29 душно 1009.1 1009.2
06 12.06 В 5 10 км 8/4 1000 м
[Cb cap Ac cuf]
+28.0 +15.1 45 +31 +33 душно 1009.3 1009.4 +21.4
09 12.06 В 5 10 км ясно +33.1 +4.8 17 +31 +41 жарко 1009.1 1009.2
12 12.06 В 3 10 км ясно +32.5 +9.3 24 +32 +41 жарко 1008.2 1008.3
15 12.06 СВ 3 10 км ясно +27.3 +15.0 47 +30 +31 душно 1007.3 1007.4
18 12.06 С 2 10 км 10/0
[Ci fib]
+23.8 +19.0 75 +29 +29 душно 1008.1 1008.2 +34.0
21 12.06 СЗ 6 10 км 8/0
[Ci fib]
+22.8 +18.5 77 +29 +29 очень
душно
1008.4 1008.5
00 13.06 СЗ 7 10 км ясно +22.8 +14.9 61 +27 +27 душно 1007.1 1007.2
03 13.06 З 7 10 км 4/0
[Ci fib]
+24.3 +15.0 56 +27 +28 жарко 1007.4 1007.5
06 13.06 СЗ 5 10 км 4/0
[Ci fib]
+28.8 +8.9 29 +29 +35 жарко 1007.9 1008.0 +22.2
09 13.06 С 7 10 км {гроза, ливн. осадки} 8/3 1000 м
[Cb cap Ac cuf]
+27.7 +12.7 40 +29 +31 жарко 1007.7 1007.8
12 13.06 С 3 10 км {гроза, ливн. осадки} 8/0
[Ac As]
+30.6 +11.9 32 +31 +35 жарко 1006.2 1006.3
15 13.06 С 2 10 км 8/0
[Ac As]
+25.8 +18.4 64 +31 +31 очень
душно
1007.0 1007.1
18 13.06 З 2 10 км 4/0
[Ac As]
+22.6 +18.8 79 +28 +28 душно 1007.9 1008.0 +31.2 0.4
21 13.06 СЗ 2 10 км 4/0
[Ac As]
+21.0 +17.6 81 +26 +26 душно 1008.1 1008.2
00 14.06 З 2 10 км ясно +20.3 +16.7 80 +24 +24 комфорт 1008.6 1008.7
03 14.06 З 7 10 км ясно +24.7 +13.2 49 +27 +27 жарко 1009.2 1009.3
06 14.06 СЗ 14 10 км ясно +29.2 +9.4 29 +29 +29 жарко 1010.3 1010.4 +20.1
09 14.06 СЗ 13 10 км ясно +30.8 +10.9 29 +31 +31 жарко 1011.2 1011.3
12 14.06 СЗ 10 10 км ясно +31.7 +14.4 35 +33 +34 жарко 1010.8 1010.9
15 14.06 СЗ 9 10 км ясно +27.0 +15.6 50 +30 +30 душно 1011.3 1011.4
18 14.06 СЗ 8 10 км ясно +24.2 +16.4 62 +28 +28 душно 1013.1 1013.2 +32.1
21 14.06 СЗ 9 10 км ясно +23.0 +16.9 69 +28 +28 душно 1012.8 1012.9
00 15.06 СЗ 6 10 км ясно +21.7 +17.8 78 +26 +26 душно 1012.6 1012.7
03 15.06 З 5 10 км ясно +22.9 +18.8 78 +29 +30 очень
душно
1013.2 1013.3
06 15.06 СЗ 6 10 км ясно +26.5 +16.5 54 +30 +36 душно 1013.6 1013.7 +21.2
09 15.06 С 6 10 км ясно +27.3 +15.3 48 +30 +38 душно 1013.1 1013.2
12 15.06 С 5 10 км ясно +27.8 +14.8 45 +30 +36 жарко 1011.7 1011.8
15 15.06 С 2 10 км ясно +26.4 +12.7 43 +28 +29 жарко 1011.3 1011.4
18 15.06 СЗ 3 10 км ясно +21.9 +18.6 82 +27 +27 душно 1011.8 1011.9 +28.3
21 15.06 СЗ 3 10 км ясно +20.6 +18.4 87 +25 +25 комфорт 1010.9 1011.0
00 16.06 СЗ 4 10 км ясно +18.6 +16.9 90 +19 +19 по сезону 1010.0 1010.1
03 16.06 СЗ 4 10 км ясно +21.8 +20.1 90 +27 +29 душно 1010.3 1010.4
06 16.06 СЗ 3 10 км ясно +27.8 +12.4 39 +29 +41 жарко 1009.6 1009.7 +18.2
09 16.06 СВ 4 10 км ясно +31.2 +14.3 36 +33 +47 жарко 1008.3 1008.4
12 16.06 В 5 10 км ясно +32.5 +12.6 30 +33 +39 жарко 1006.7 1006.8
15 16.06 В 3 10 км ясно +30.2 +7.1 23 +29 +30 жарко 1006.1 1006.2
18 16.06 СЗ 5 10 км ясно +24.3 +19.0 72 +29 +29 душно 1008.5 1008.6 +34.1
21 16.06 СЗ 2 10 км ясно +22.2 +18.7 81 +28 +28 душно 1007.0 1007.1

 

Местоположение метеостанции Баку (Азербайджан): широта 40.45 долгота 50.07 высота над уровнем моря -1 м.

В архиве по умолчанию представлена погода в Баку за последнюю неделю. Архивные данные за месяц целиком и за предыдущие месяцы, начиная с января 2011 года, Вы можете получить, выбрав интересующий диапазон дат из раскрывающегося списка и нажав кнопку "Ввод!".


*Определитесь, кто Вы:
робот инопланетянин человек

Внимание! Время в таблицах - всемирное. Для получения местного времени необходимо прибавить поправку, которая равна 4 ч.

Смотрите также архив погоды в соседних городах и на ближайших метеорологических станциях:

Погода в Баку (дендропарк) (Азербайджан) (25 км)
Погода в Алате (Азербайджан) (78 км)
Погода в Маразе (Азербайджан) (97 км)
Погода в Шемахе (Азербайджан) (123 км)
Погода в Нефтечале (Азербайджан) (136 км)
Погода в Курдамире (Азербайджан) (162 км)
Погода в Губе (Азербайджан) (166 км)
Погода в Габале (Азербайджан) (195 км)
Погода в Геокчае (Азербайджан) (197 км)
Погода в Парсабаде (Иран) (204 км)

Пояснения к столбцам:

Ветер - указаны скорость ветра в м/с - средняя за 10 мин, порывы в срок и между сроками (в фигурных скобках) и направление, откуда дует ветер: С - северный, СВ - северо-восточный, В - восточный, ЮВ - юго-восточный, Ю - южный, ЮЗ - юго-западный, З - западный, СЗ - северо-западный.
Видимость - горизонтальная дальность видимости в метрах или километрах. При видимости от 1 до 10 км при отсутствии осадков обычно наблюдается дымка, при ухудшении видимости до 1 км и менее - туман. В сухую погоду видимость может ухудшаться дымом, пылью или мглою.
Явления - указаны атмосферные явления, наблюдавшиеся в срок или в последний час перед сроком; фигурными скобками обозначены явления, наблюдавшиеся между сроками (за 1-3 часа до срока); квадратными скобками обозначены град или гололедные отложения с указанием их диаметра в мм.
Облачность - указаны через наклонную черту общая и нижняя облачность в баллах и высота нижней границы облаков в метрах; квадратными скобками обозначены формы облаков: Ci - перистые, Cs - перисто-слоистые, Cc - перисто-кучевые, Ac - высококучевые, As - высокослоистые, Sc - слоисто-кучевые, Ns - слоисто-дождевые, Cu - кучевые, Cb - кучево-дождевые. Подробнее классификацию облаков см. в Атласе облаков (PDF).
T - Температура воздуха - температура, измеренная на высоте 2 м над землей.
Td - Температура точки росы - температура, при понижении до которой содержащийся в воздухе водяной пар достигнет насыщения.
f - Относительная влажность воздуха - влажноcть воздуха, измеренная на высоте 2 м над землей.
Te - Эффективная температура - температура, которую ощущает одетый по сезону человек в тени. Характеристика душности погоды. При расчете учитывается влияние влажности воздуха и скорости ветра на теплоощущения человека.
Tes - Эффективная температура на солнце - температура, которую ощущает человек, с поправкой на солнечный нагрев. Характеристика знойности погоды. Зависит от высоты солнца над горизонтом, облачности и скорости ветра. Ночью, в пасмурную погоду, а также при ветре 12 м/с и более поправка равна нулю.
P - Атмосферное давление - приведенное к уровню моря атмосферное давление.
Po - Атмосферное давление - измеренное на уровне метеостанции атмосферное давление.
Tmin - Минимальная температура - минимум температуры воздуха на высоте 2 м над землей.
Tmax - Максимальная температура - максимум температуры воздуха на высоте 2 м над землей.
R - Количество осадков - Количество выпавших осадков за период времени, мм. При наведении курсора мыши на число - период времени, за который выпало указанное количество осадков.
R24 - Количество осадков - Количество выпавших осадков за 24 часа, мм.
S - Снежный покров - Высота снежного покрова, см. При наведении курсора мыши на число - состояние снежного покрова и степень покрытия местности в баллах.